Weather History for Ontario, OR

Change the Weather History Date:

Tuesday, October 29, 2013

  Actual Average Record
Temperature  
Mean Temperature 45 °F 45 °F  
Max Temperature 55 °F 59 °F 77 °F (2003)
Min Temperature 34 °F 31 °F 20 °F (1993)
Degree Days  
Heating Degree Days 20 20  
Month to date heating degree days 443 416  
Since 1 July heating degree days 531 550  
Cooling Degree Days 0 0  
Month to date cooling degree days 0 0  
Year to date cooling degree days 1299 851  
Moisture  
Dew Point 33 °F    
Average Humidity 62    
Maximum Humidity 82    
Minimum Humidity 41    
Precipitation  
Precipitation T in 0.03 in 0.70 in (1982)
Month to date precipitation 0.25 0.57  
Year to date precipitation 4.02 7.22  
Sea Level Pressure  
Sea Level Pressure 29.94 in    
Wind  
Wind Speed 6 mph (West)    
Max Wind Speed 15 mph    
Max Gust Speed 20 mph    
Visibility 9 miles    
Events Rain , Snow    
T = Trace of Precipitation, MM = Missing Value Source: NWS Daily Summary

Daily Weather History Graph

Daily Weather History Graph

Search for Another Location

Airport:

Trip Planner

Search our weather history database for the weather conditions in past years. The results will help you decide how hot, cold, wet, or windy it might be!

Date:

Astronomy

Oct. 29, 2013 Rise Set
Actual Time 8:21 AM MDT 6:41 PM MDT
Civil Twilight 7:51 AM MDT 7:11 PM MDT
Nautical Twilight 7:17 AM MDT 7:45 PM MDT
Astronomical Twilight 6:43 AM MDT 8:19 PM MDT
Moon 3:05 AM MDT 4:06 PM MDT
Length of Visible Light 11h 20m
Length of Day
10h 20m
Waning Crescent, 24% of the Moon is Illuminated
Oct 29
Waning Crescent
Nov 3
New
Nov 9
First Quarter
Nov 17
Full
Nov 25
Last Quarter

Hourly Weather History & Observations

Time (MDT) Temp. Windchill Dew Point Humidity Pressure Visibility Wind Dir Wind Speed Gust Speed Precip Events Conditions
12:43 AM 42.8 °F 40.1 °F 33.8 °F 70% 29.78 in 10.0 mi NNW 4.6 mph - 0.00 in Rain Light Rain
12:53 AM 43.0 °F 39.5 °F 34.0 °F 71% 29.81 in 10.0 mi NW 5.8 mph - 0.01 in Rain Light Rain
1:42 AM 42.8 °F 41.1 °F 33.8 °F 70% 29.80 in 10.0 mi NNW 3.5 mph - 0.00 in   Overcast
1:53 AM 43.0 °F 41.3 °F 34.0 °F 71% 29.83 in 10.0 mi North 3.5 mph - 0.00 in   Overcast
2:53 AM 43.0 °F 41.3 °F 33.1 °F 68% 29.85 in 10.0 mi North 3.5 mph - N/A   Partly Cloudy
3:53 AM 39.9 °F 37.8 °F 32.0 °F 73% 29.87 in 10.0 mi NW 3.5 mph - N/A   Scattered Clouds
4:53 AM 37.9 °F - 30.9 °F 76% 29.88 in 10.0 mi Calm Calm - N/A   Clear
5:53 AM 35.1 °F 31.0 °F 30.0 °F 82% 29.90 in 10.0 mi WSW 4.6 mph - N/A   Clear
6:53 AM 35.1 °F 30.1 °F 30.0 °F 82% 29.92 in 9.0 mi WSW 5.8 mph - 0.00 in Snow Light Snow
7:53 AM 39.0 °F 36.8 °F 30.0 °F 70% 29.94 in 10.0 mi West 3.5 mph - 0.00 in   Overcast
8:53 AM 39.0 °F 34.0 °F 32.0 °F 76% 29.96 in 10.0 mi WSW 6.9 mph - N/A   Overcast
9:53 AM 41.0 °F 38.0 °F 34.0 °F 76% 29.98 in 10.0 mi WSW 4.6 mph - N/A   Overcast
10:53 AM 45.0 °F 43.5 °F 32.0 °F 60% 29.99 in 10.0 mi West 3.5 mph - N/A   Overcast
11:53 AM 48.9 °F - 30.9 °F 50% 29.99 in 10.0 mi WNW 5.8 mph - N/A   Scattered Clouds
12:53 PM 51.1 °F - 28.9 °F 43% 29.99 in 10.0 mi Calm Calm - N/A   Clear
1:53 PM 53.1 °F - 30.9 °F 43% 29.98 in 10.0 mi Variable 3.5 mph - N/A   Clear
2:53 PM 54.0 °F - 32.0 °F 43% 29.97 in 10.0 mi WSW 5.8 mph - N/A   Clear
3:53 PM 54.0 °F - 34.0 °F 47% 29.97 in 6.0 mi SW 9.2 mph - N/A   Haze
4:53 PM 55.0 °F - 36.0 °F 49% 29.97 in 10.0 mi WSW 5.8 mph - N/A   Clear
5:53 PM 53.1 °F - 35.1 °F 50% 29.98 in 9.0 mi WSW 6.9 mph - N/A   Clear
6:53 PM 48.9 °F - 37.0 °F 64% 30.00 in 8.0 mi WSW 11.5 mph - N/A   Clear
7:53 PM 45.0 °F 38.9 °F 36.0 °F 71% 30.02 in 7.0 mi WSW 12.7 mph - N/A   Clear
8:53 PM 43.0 °F 36.0 °F 34.0 °F 71% 30.03 in 7.0 mi WSW 13.8 mph - N/A   Clear
9:53 PM 42.1 °F 35.2 °F 33.1 °F 70% 30.04 in 7.0 mi WSW 12.7 mph - N/A   Clear
10:53 PM 39.9 °F - 33.1 °F 77% 30.06 in 10.0 mi Calm Calm - N/A   Clear
11:53 PM 41.0 °F 39.0 °F 32.0 °F 70% 30.06 in 10.0 mi South 3.5 mph - N/A   Clear